Wetterstation Vordersexau
Wetterdaten: Woche 19.02.18 - 25.02.18 (KW8)
Datum Zeit Temp. A. Feuchte A. Luftdruck Regen Wind Richtung Taupunkt Windchill Windben
19.02.2018 00:00 0,3 C 87 % 1019,5 hPa 0,0 l/m 0,0 km/h SO -1,6 C 0,3 C 0,0 km/h
19.02.2018 01:00 0,3 C 87 % 1019,1 hPa 0,0 l/m 0,0 km/h SO -1,6 C 0,3 C 0,0 km/h
19.02.2018 02:00 0,1 C 86 % 1018,4 hPa 0,0 l/m 0,0 km/h O-SO -2,0 C 0,1 C 0,0 km/h
19.02.2018 03:00 0,7 C 87 % 1017,9 hPa 0,0 l/m 0,0 km/h O -1,2 C 0,7 C 0,0 km/h
19.02.2018 04:00 0,9 C 86 % 1017,9 hPa 0,0 l/m 0,0 km/h NO -1,2 C 0,9 C 0,0 km/h
19.02.2018 05:00 0,7 C 86 % 1017,2 hPa 0,0 l/m 0,0 km/h NO -1,4 C 0,7 C 0,0 km/h
19.02.2018 06:00 0,4 C 87 % 1017,3 hPa 0,0 l/m 0,0 km/h NO -1,5 C 0,4 C 0,0 km/h
19.02.2018 07:00 0,4 C 87 % 1017,2 hPa 0,0 l/m 0,0 km/h NO -1,5 C 0,4 C 0,0 km/h
19.02.2018 08:00 0,9 C 86 % 1017,0 hPa 0,0 l/m 0,0 km/h NO -1,2 C 0,9 C 0,0 km/h
19.02.2018 09:00 1,9 C 86 % 1017,0 hPa 0,0 l/m 0,0 km/h NO -0,2 C 1,9 C 0,0 km/h
19.02.2018 10:00 2,9 C 82 % 1016,9 hPa 0,0 l/m 0,0 km/h NO 0,1 C 2,9 C 0,0 km/h
19.02.2018 11:00 3,8 C 77 % 1016,4 hPa 0,0 l/m 0,0 km/h NO 0,1 C 3,8 C 0,0 km/h
19.02.2018 12:00 3,8 C 73 % 1015,9 hPa 0,0 l/m 0,0 km/h N-NW -0,6 C 3,8 C 0,0 km/h
19.02.2018 13:00 3,4 C 72 % 1015,6 hPa 0,0 l/m 0,0 km/h N -1,2 C 3,4 C 0,0 km/h
19.02.2018 14:00 4,0 C 71 % 1015,1 hPa 0,0 l/m 0,0 km/h NO -0,8 C 4,0 C 0,0 km/h
19.02.2018 15:00 3,4 C 71 % 1014,8 hPa 0,0 l/m 0,0 km/h N-NO -1,3 C 3,4 C 0,0 km/h
19.02.2018 16:00 2,9 C 72 % 1014,7 hPa 0,0 l/m 0,0 km/h N -1,6 C 2,9 C 0,0 km/h
19.02.2018 17:00 2,1 C 73 % 1014,4 hPa 0,0 l/m 0,0 km/h N -2,2 C 2,1 C 0,0 km/h
19.02.2018 18:00 1,2 C 78 % 1014,8 hPa 0,0 l/m 0,0 km/h N -2,2 C 1,2 C 0,0 km/h
19.02.2018 19:00 0,9 C 81 % 1014,0 hPa 0,0 l/m 0,0 km/h N -2,0 C 0,9 C 0,0 km/h
19.02.2018 20:00 0,6 C 83 % 1014,1 hPa 0,0 l/m 0,0 km/h N -1,9 C 0,6 C 0,0 km/h
19.02.2018 21:00 0,4 C 84 % 1013,9 hPa 0,0 l/m 0,0 km/h N -2,0 C 0,4 C 0,0 km/h
19.02.2018 22:00 0,2 C 85 % 1013,3 hPa 0,0 l/m 0,0 km/h N -2,0 C 0,2 C 0,0 km/h
19.02.2018 23:00 0,2 C 85 % 1013,3 hPa 0,0 l/m 0,0 km/h N -2,0 C 0,2 C 0,0 km/h
20.02.2018 00:00 0,1 C 86 % 1013,1 hPa 0,0 l/m 0,0 km/h N -2,0 C 0,1 C 0,0 km/h
20.02.2018 01:00 0,3 C 86 % 1012,8 hPa 0,0 l/m 0,0 km/h N -1,8 C 0,3 C 0,0 km/h
20.02.2018 02:00 0,1 C 86 % 1012,5 hPa 0,0 l/m 0,0 km/h N -2,0 C 0,1 C 0,0 km/h
20.02.2018 03:00 0,0 C 86 % 1012,4 hPa 0,0 l/m 0,0 km/h N -2,1 C 0,0 C 0,0 km/h
20.02.2018 04:00 -0,2 C 86 % 1012,5 hPa 0,0 l/m 0,0 km/h N -2,3 C -0,2 C 0,0 km/h
20.02.2018 05:00 -0,4 C 86 % 1012,3 hPa 0,0 l/m 0,0 km/h N -2,4 C -0,4 C 0,0 km/h
20.02.2018 06:00 -0,2 C 86 % 1012,5 hPa 0,0 l/m 0,0 km/h N -2,3 C -0,2 C 0,0 km/h
20.02.2018 07:00 -0,2 C 86 % 1012,5 hPa 0,0 l/m 0,0 km/h - - -2,3 C -0,2 C 0,0 km/h
Min-Datum _ 20.02.18 19.02.18 20.02.18 - 19.02.18 - 20.02.18 20.02.18 19.02.18
_ Min-Zeit 05:53 14:53 05:53 - 00:53 - 05:53 05:53 00:53
Minimum _ -0,4 C 71 % 1012,3 hPa - 0,0 km/h - -2,4 C -0,4 C 0,0 km/h
Max-Datum _ 19.02.18 19.02.18 19.02.18 19.02.18 19.02.18 - 19.02.18 19.02.18 19.02.18
_ Max-Zeit 14:53 00:53 00:53 00:53 00:53 - 11:53 14:53 00:53
Maximum _ 4,0 C 87 % 1019,5 hPa 0,0 l/m 0,0 km/h
SO
- 0,1 C 4,0 C 0,0 km/h
SO
Durchschnitt _ 1,1 C 83 % 1015,2 hPa #0,0 l/m 0,0 km/h N -1,6 C 1,1 C 0,0 km/h
www.sexauwetter.de